Regional Weather Roundup
Issued by NWS Newport/Morehead, NC

Current Version | Previous Version | Graphics & Text | Print | Product List | Glossary Off
Versions: 1 2 3 4 5 6 7 8 9 10 11 12 13 14 15 16 17 18 19 20 21 22 23 24 25 26 27 28 29 30 31 32 33 34 35 36 37 38 39 40 41 42 43 44 45 46 47 48 49 50
000 ASUS42 KMHX 292225 RWRMHX WEATHER ROUNDUP FOR EASTERN NORTH CAROLINA NATIONAL WEATHER SERVICE NEWPORT/MOREHEAD CITY NC 600 PM EDT SUN MAY 29 2016 NOTE: "FAIR" INDICATES FEW OR NO CLOUDS BELOW 12,000 FEET WITH NO SIGNIFICANT WEATHER AND/OR OBSTRUCTIONS TO VISIBILITY NCZ015>017-031-032-045>047-102-103-292300- NORTH COAST CITY SKY/WX TMP DP RH WIND PRES REMARKS EDENTON PTSUNNY N/A N/A N/A S9 30.04S ELIZABETH CITY MOSUNNY 80 72 76 SE12 30.05S KITTY HAWK MOCLDY 80 74 81 S5 30.05S MANTEO NOT AVBL $$ NCZ045>047-081-094-103-104-292300- CENTRAL COAST CITY SKY/WX TMP DP RH WIND PRES REMARKS FRISCO LGT RAIN 76 73 91 S14 30.05F $$ NCZ095-097-098-100-101-292300- SOUTHERN COAST CITY SKY/WX TMP DP RH WIND PRES REMARKS BEAUFORT CLOUDY 79 73 82 SE12 30.03S CEDAR ISLAND NOT AVBL JACKSONVILLE CLOUDY 80 72 76 SE13 30.00F PINEY ISLAND CLOUDY N/A N/A N/A SE13 30.03F WILMINGTON MOSUNNY 79 71 76 S14G22 29.98S $$ NCZ011>013-027>030-043-044-078>080-089-090>093-098-292300- COASTAL PLAIN CITY SKY/WX TMP DP RH WIND PRES REMARKS AHOSKIE MOSUNNY 79 72 78 SE3 30.02F CLINTON HVY RAIN 75 73 92 S7G16 30.01R ELIZABETHTOWN CLOUDY 79 70 74 E6 29.97S GOLDSBORO MOSUNNY 83 71 67 S10 29.99S GREENVILLE CLOUDY 82 72 69 S10 30.02F HAVELOCK CLOUDY 80 71 74 SE10 30.03F KENANSVILLE CLOUDY 75 73 92 CALM 30.01S KINSTON MOSUNNY 82 70 65 S12 30.01F NEW BERN PTSUNNY 81 70 69 S9 30.03S RICHLANDS CLOUDY 81 73 76 SE14G22 30.00F ROCKY MOUNT MOSUNNY 80 73 79 E6 30.01S WASHINGTON SUNNY 83 71 67 SE10G16 30.01F WHITEVILLE PTSUNNY 80 69 68 E8 29.95F $$ AMZ130-135-150-152-154-156-158-170-250-252-270-ANZ085-086-088-633-658-670-292300- MARINE OBSERVATIONS STATION/POSITION TIME TEMP WIND PRES WAVE SWELL AIR SEA DIR/SP/G HT/PER HT/PER (UTC) (F) (DEG/KT/KT) (MB) (FT/S) (FT/S) CHESAPEAKE LIGHT 2200 72 160/ 17/ 18 1018.0 64 E VA BEACH 2150 70 65 140/ 6/ 8 1018.3 4/ 8 3/ 8 DUCK 2200 64 N/A 2 E DUCK 2211 66 N/A 3/ 7 OREGON INLET 2200 79 N/A 13E OREGON INLT 2200 70 N/A 4/ 6 3/ 7 HATTERAS CG 2200 77 N/A DIAMOND BUOY 2150 78 78 180/ 19/ 21 1017.2 6/ 8 2/16 CAPE LOOKOUT 2200 76 140/ 8/ 9 1016.5 BEAUFORT LAB 2200 76 N/A 30 SE NEW RVR IN 2125 75 N/A 7/ 7 27 SE WRIGHTSVLE 2208 79 76 150/ 14/ 21 1015.2 5 SE WRIGHTSVLE 2108 77 75 180/ 8/ 14 1016.0 225 S CAPE HAT 2150 76 76 130/ 12/ 14 1018.2 4/ 7 3/ 7 41 SE CHARLESTON 2150 73 78 200/ 16/ 19 1012.8 6/ 8 $$

USA.gov is the U.S. government's official web portal to all federal, state and local government web resources and services.